Regional Weather Roundup
Issued by NWS

Home | Current Version | Previous Version | Text Only | Print | Product List | Glossary Off
Versions: 1 2 3 4 5 6 7 8 9 10 11 12 13 14 15 16 17 18 19 20 21 22 23 24 25 26 27 28 29 30 31 32 33 34 35 36 37 38 39 40 41 42 43 44 45 46 47 48 49 50

000
ASUS43 KDTX 301210
RWRMI
MICHIGAN HOURLY REGIONAL WEATHER ROUNDUP
NATIONAL WEATHER SERVICE DETROIT/PONTIAC MI
800 AM EDT TUE JUN 30 2015

NOTE: "FAIR" INDICATES FEW OR NO CLOUDS BELOW 12,000 FEET WITH NO
SIGNIFICANT WEATHER AND/OR OBSTRUCTION TO VISIBILITY.

MIZ047>049-052>055-059>063-066>070-074>076-081>083-301300-
SOUTHEAST LOWER MICHIGAN

CITY           SKY/WX    TMP DP  RH WIND       PRES   REMARKS
ADRIAN         SUNNY     63  60  90 CALM      29.83R
6HR MIN TEMP:  62; 6HR MAX TEMP:  63;

ALMA           CLOUDY    61  60  96 CALM      29.82S
ANN ARBOR      CLOUDY    63  61  93 CALM      29.82R FOG
BAD AXE        CLOUDY    60  58  93 CALM      29.84R
CARO           CLOUDY    60  57  92 CALM      29.82S
DETROIT CITY   CLOUDY    63  59  87 SE6       29.81S
6HR MIN TEMP:  63; 6HR MAX TEMP:  65; 6HR PCP: TRACE;

DETROIT        LGT RAIN  64  60  87 CALM      29.82R FOG
6HR MIN TEMP:  63; 6HR MAX TEMP:  64; 6HR PCP:  0.02;

FLINT          CLOUDY    65  59  81 CALM      29.82R
6HR MIN TEMP:  58; 6HR MAX TEMP:  65;

GROSSE ILE     DRIZZLE   63  61  94 NE3       29.80R
HILLSDALE      CLOUDY    62  62  99 CALM      29.83R
6HR MIN TEMP:  60; 6HR MAX TEMP:  62;

HOWELL         CLOUDY    62  61  97 CALM      29.83R FOG
6HR MIN TEMP:  58; 6HR MAX TEMP:  62;


CITY           SKY/WX    TMP DP  RH WIND       PRES   REMARKS
JACKSON        PTSUNNY   63  59  87 SW6       29.82R
6HR MIN TEMP:  58; 6HR MAX TEMP:  63;

LAMBERTVILLE   CLOUDY    65  60  85 CALM      29.82S HAZE
6HR MIN TEMP:  61; 6HR MAX TEMP:  65;

LANSING        CLOUDY    64  58  80 CALM      29.83R
6HR MIN TEMP:  59; 6HR MAX TEMP:  64;

LAPEER         CLOUDY    61  58  90 CALM      29.83R
MASON          CLOUDY    60  59  96 CALM      29.83
MONROE         CLOUDY    63  61  95 W5        29.81R FOG
MT. CLEMENS    CLOUDY    63  61  91 SE5       29.80R
6HR MIN TEMP:  63; 6HR MAX TEMP:  65;

PONTIAC        CLOUDY    64  59  83 E3        29.81R
6HR MIN TEMP:  62; 6HR MAX TEMP:  64;

PORT HOPE        N/A     62  57  83 CALM      29.82R
6HR MIN TEMP:  56; 6HR MAX TEMP:  62;

PORT HURON     CLOUDY    61  59  94 CALM      29.82S
TRI CITIES     CLOUDY    63  57  81 SE3       29.83R
6HR MIN TEMP:  58; 6HR MAX TEMP:  63;

MIDLAND        CLOUDY    60  58  92 CALM      29.82R
TROY           CLOUDY    65  61  86 CALM      29.83R
SAGINAW HB     CLOUDY    61  61 100 CALM      29.82R
$$
MIZ043>046-050>051-056>058-064>065-071>073-077>080-301300-
SOUTHWEST LOWER MICHIGAN

CITY           SKY/WX    TMP DP  RH WIND       PRES   REMARKS
BATTLE CREEK   CLOUDY    64  59  83 S3        29.82R
6HR MIN TEMP:  60; 6HR MAX TEMP:  64;

BENTON HARBOR  CLOUDY    63  61  93 S6        29.78S FOG
6HR MIN TEMP:  60; 6HR MAX TEMP:  63;

BIG RAPIDS     CLOUDY    58  55  89 CALM      29.81R
6HR MIN TEMP:  54; 6HR MAX TEMP:  58;

COLDWATER      CLOUDY    62  60  95 CALM      29.82R
6HR MIN TEMP:  58; 6HR MAX TEMP:  62;

FREMONT        CLOUDY    59  58  97 E6        29.79S
HOLLAND        CLOUDY    62  59  90 SE5       29.80R
6HR MIN TEMP:  59; 6HR MAX TEMP:  62; 6HR PCP: TRACE;

GRAND RAPIDS   CLOUDY    61  59  93 SE5       29.81R
6HR MIN TEMP:  56; 6HR MAX TEMP:  61;

IONIA          PTSUNNY   61  60  99 CALM      29.81R
KALAMAZOO      CLOUDY    64  59  83 S5        29.82R
6HR MIN TEMP:  59; 6HR MAX TEMP:  64;

LUDINGTON      RAIN      61  59  91 SE7       29.78F
6HR MIN TEMP:  58; 6HR MAX TEMP:  64; 6HR PCP:  0.16;

MARSHALL       MOSUNNY   62  60  93 SE3       29.81S
MOUNT PLEASANT CLOUDY    59  58  96 CALM      29.81S
6HR MIN TEMP:  53; 6HR MAX TEMP:  61;

MUSKEGON       CLOUDY    62  59  90 SE7       29.79R
6HR MIN TEMP:  60; 6HR MAX TEMP:  62; 6HR PCP:  0.01;

SOUTH HAVEN    CLOUDY    62  61  95 CALM      29.79R FOG
$$
MIZ016>042-301300-
NORTHERN LOWER MICHIGAN

CITY           SKY/WX    TMP DP  RH WIND       PRES   REMARKS
ALPENA         MOSUNNY   63  57  81 CALM      29.82S
6HR MIN TEMP:  51; 6HR MAX TEMP:  64;

BEAVER ISLAND  LGT RAIN  61  60  96 CALM      29.80R
6HR MIN TEMP:  58; 6HR MAX TEMP:  62;

BELLAIRE       CLOUDY    64  58  80 CALM      29.80S
6HR MIN TEMP:  59; 6HR MAX TEMP:  64;

CADILLAC       CLOUDY    58  56  94 CALM      29.81S
CHARLEVOIX     CLOUDY    64  60  86 SE3       29.82S FOG
FRANKFORT      CLOUDY    64  58  80 CALM      29.78F
GAYLORD        PTSUNNY   61  58  90 SW3       29.83R
6HR MIN TEMP:  57; 6HR MAX TEMP:  62;

GRAYLING       PTSUNNY   56  53  91 CALM      29.83S
HARBOR SPRINGS PTSUNNY   64  58  80 CALM      29.81R
HOUGHTON LAKE  PTSUNNY   59  57  93 CALM      29.83R
6HR MIN TEMP:  51; 6HR MAX TEMP:  58;

MANISTEE       CLOUDY    59  55  88 E7        29.80R
OSCODA         SUNNY     62  59  93 SW3       29.82R
PELLSTON       PTSUNNY   62  56  80 CALM      29.81R
6HR MIN TEMP:  55; 6HR MAX TEMP:  62;

ROGERS CITY    PTSUNNY   65  58  80 CALM      29.82S
TRAVERSE CITY  CLOUDY    62  58  86 CALM      29.78S
6HR MIN TEMP:  61; 6HR MAX TEMP:  62;

$$
MIZ007>008-015-301300-
EASTERN UPPER MICHIGAN

CITY           SKY/WX    TMP DP  RH WIND       PRES   REMARKS
KINROSS        CLOUDY    63  59  88 SE3       29.81R
6HR MIN TEMP:  61; 6HR MAX TEMP:  63;

MACKINAC ISLAN CLOUDY    64  58  81 CALM      29.81R
6HR MIN TEMP:  59; 6HR MAX TEMP:  64;

NEWBERRY       CLOUDY    59  59  99 CALM      29.79R FOG
6HR MIN TEMP:  58; 6HR MAX TEMP:  59;

S. S. MARIE    CLOUDY    61  56  83 SE3       29.81R
6HR MIN TEMP:  59; 6HR MAX TEMP:  62;

MUNISING         N/A     48  44  86 NW5       29.84R
6HR MIN TEMP:  48; 6HR MAX TEMP:  61; 6HR PCP:  0.07;

$$
MIZ004>006-011>014-085-301300-
CENTRAL UPPER MICHIGAN

CITY           SKY/WX    TMP DP  RH WIND       PRES   REMARKS
MANISTIQUE     CLOUDY    60  59  97 CALM      29.80R FOG
ESCANABA       CLOUDY    57  54  88 N8G16     29.81R
6HR MIN TEMP:  57; 6HR MAX TEMP:  61;

MENOMINEE      CLOUDY    61  57  88 N6        29.80R
6HR MIN TEMP:  61; 6HR MAX TEMP:  63; 6HR PCP:  0.03;

SAWYER-GWINN   LGT RAIN  48  46  93 N9        29.84R
$$
MIZ001>003-009>011-084-301300-
WESTERN UPPER MICHIGAN

CITY           SKY/WX    TMP DP  RH WIND       PRES   REMARKS
IRON MOUNTAIN  CLOUDY    54  49  83 NW17G23   29.85R
6HR MIN TEMP:  54; 6HR MAX TEMP:  61; 6HR PCP:  0.02;

HOUGHTON       CLOUDY    48  45  89 N9G20     29.91R
6HR MIN TEMP:  48; 6HR MAX TEMP:  51; 6HR PCP: TRACE;

COPPER HARBOR    N/A     46  42  86 NE14      29.91R
6HR MIN TEMP:  46; 6HR MAX TEMP:  48; 6HR PCP:  0.35;

IRONWOOD       CLOUDY    52  50  93 N5        29.92R
6HR MIN TEMP:  52; 6HR MAX TEMP:  59;

$$

ABBREVIATIONS USED IN REMARKS
   TC - TEMPERATURE IN CELSIUS
  WCI - WIND CHILL INDEX
   HX - HEAT INDEX
  VSB - VISIBILITY



USA.gov is the U.S. government's official web portal to all federal, state and local government web resources and services.